Location: Asheville, NC
(35.6000°N, 82.5500°W)
Time: 16:42:27
(UTC-04:00)

ISS - Pass Details

Date: 14 May 2026
Orbit: 414 x 424 km, 51.6° (Epoch: 15 May)

Event Time Altitude Azimuth Distance (km) Brightness Sun altitude
Rises 21:06:43 0° 284° (WNW) 2,341 1.8 -7.9°
Reaches altitude 10° 21:10:40 10° 331° (NNW) 1,482 0.1 -8.6°
Maximum altitude 21:11:05 10° 338° (NNW) 1,472 -0.1 -8.7°
Drops below altitude 10° 21:11:30 10° 345° (NNW) 1,483 -0.3 -8.8°
Sets 21:15:28 0° 33° (NNE) 2,349 0.0 -9.4°
